Tracking 19562 objects as of 21-Mar-2019
HD Live streaming from Space Station
objects crossing your sky now

DMSP 5D-2 F10 (USA 68)

Track DMSP 5D-2 F10 (USA 68) now!
10-day predictions
DMSP 5D-2 F10 (USA 68) is classified as:


NORAD ID: 20978
Int'l Code: 1990-105A
Perigee: 720.3 km
Apogee: 824.0 km
Inclination: 98.7 °
Period: 100.1 minutes
Semi major axis: 7143 km
RCS: 4.2059 m2 (large)
Launch date: December 1, 1990
Source: United States (US)
Launch site: AIR FORCE WESTERN TEST RANGE (AFWTR)
aabbcc
Your satellite tracking list
Your tracking list is empty




NASA's NSSDC Master Catalog

Two Line Element Set (TLE):
1 20978U 90105A   19080.50542210  .00000011  00000-0  18499-4 0  9995
2 20978  98.7204  56.1865 0072610 214.3185 145.3299 14.38038614482486
Source of the keplerian elements: AFSPC